Racecast

Poudre Learning Center

Difficulty:i +4.3% (4828m, the usual distance here) · 547 results · 537 athletes

All 4828m 5000m

Distances raced here

DistanceDifficultyiResults FirstLast
4828m +4.3% 319 2021-08-21 2021-08-21
5000m -4.8% 228 2023-09-16 2023-09-16

Best speed ratings all distances

Boys

#AthleteRatingi TimeDistSchoolDate
1 Evan Kraus 136.9 15:19.8 4828m Erie (CO) 2021-08-21
2 Tyler Ball 133.0 15:46.7 4828m Lyons (CO) 2021-08-21
3 Caden Schweer 132.3 15:51.6 4828m Severance (CO) 2021-08-21
4 Cole Thomas 125.6 16:42.1 4828m Lyons (CO) 2021-08-21
5 Cole Mazurana 125.3 16:44.9 4828m Windsor (CO) 2021-08-21
6 Simon Murray 124.7 16:49.3 4828m Silver Creek (CA) 2021-08-21
7 Logan Maddox 121.8 17:13.9 4828m Erie (CO) 2021-08-21
8 Sebastian Groom 121.6 17:15.3 4828m Frontier Academy (CO) 2021-08-21
9 Connor Love 121.5 17:16 4828m Loveland (OH) 2021-08-21
10 Arjen Wyjna 120.8 17:21.7 4828m Lyons (CO) 2021-08-21
11 Navin Ranweiler 120.8 16:11 5000m Poudre (CO) 2023-09-16
12 Lucas Steveson 120.7 16:11.3 5000m Cheyenne East (WY) 2023-09-16
13 Rigby Salzer 120.5 17:24.3 4828m Loveland (OH) 2021-08-21
14 Joel Campos 120.5 17:25.1 4828m Fort Morgan (CO) 2021-08-21
15 Cade Green 119.8 16:18.6 5000m Wiggins (CO) 2023-09-16
16 Aden Zwonitzer 119.3 16:22.9 5000m Cheyenne East (WY) 2023-09-16
17 Joseph Wade 119.3 16:23.3 5000m Fort Collins (CO) 2023-09-16
18 Chase Bodine 119.1 16:24.3 5000m Wiggins (CO) 2023-09-16
19 Garrett Beshore 119.1 17:37.1 4828m Silver Creek (CA) 2021-08-21
20 Luke Fritsche 119.0 17:38.2 4828m Erie (CO) 2021-08-21
21 Kade Robinson 119.0 17:38.4 4828m Silver Creek (CA) 2021-08-21
22 Malachi Wilbourn 118.6 16:28.7 5000m Poudre (CO) 2023-09-16
23 Tobin Rapley 118.5 16:29.4 5000m Fort Collins (CO) 2023-09-16
24 Sage Wynja 118.4 17:43.6 4828m Lyons (CO) 2021-08-21
25 Bradin Vick 118.2 17:45.3 4828m Loveland (OH) 2021-08-21
26 Cody Simonson 118.1 17:45.6 4828m Erie (CO) 2021-08-21
27 Nathan Raimo 117.8 17:48.3 4828m Erie (CO) 2021-08-21
28 Dillon Richardson 117.7 17:49.5 4828m Erie (CO) 2021-08-21
29 Ryan Rademacher 117.6 17:50.5 4828m Erie (CO) 2021-08-21
30 Cameron Thomas 117.5 17:51.4 4828m Windsor (CO) 2021-08-21
31 Dominic Hess 117.5 17:51.8 4828m Northridge (UT) 2021-08-21
32 Avery Swanson 117.1 16:41.7 5000m Poudre (CO) 2023-09-16
33 Simon Marsh 117.0 17:55.8 4828m Fort Morgan (CO) 2021-08-21
34 Caleb Siegling 116.7 17:59.2 4828m Fort Morgan (CO) 2021-08-21
35 Brayden Colbert 116.6 16:45.6 5000m Cheyenne East (WY) 2023-09-16
36 Giovanni Basile 116.3 18:02.5 4828m Longmont (CO) 2021-08-21
37 Connor McCormick 116.2 18:03.1 4828m Longmont (CO) 2021-08-21
38 Anders Johnson 116.2 18:03.4 4828m Loveland (OH) 2021-08-21
39 Kai Batie 115.6 18:08.9 4828m Loveland (OH) 2021-08-21
40 Jose Romero 115.4 18:10.8 4828m Fort Morgan (CO) 2021-08-21
41 Roy Brocker 115.4 18:11.1 4828m Severance (CO) 2021-08-21
42 Kellin Wilson 115.3 16:57.3 5000m Poudre (CO) 2023-09-16
43 Rayce Mason 114.9 18:16 4828m Loveland (OH) 2021-08-21
44 Dakota Fortney 114.8 17:01.6 5000m Fort Collins (CO) 2023-09-16
45 Javier Duran 114.6 18:18.8 4828m Yuma (CO) 2021-08-21
46 Isaac Reed 114.3 17:05.8 5000m Wiggins (CO) 2023-09-16
47 Noah Colbert 114.0 17:09.1 5000m Poudre (CO) 2023-09-16
48 Scott Kennedy 113.8 17:10.6 5000m Wiggins (CO) 2023-09-16
49 Liam Bratt 113.6 17:12.2 5000m Northridge (UT) 2023-09-16
50 Marcus Giles 113.4 18:30.1 4828m Loveland (OH) 2021-08-21
51 Iain Cormier 113.3 18:31.3 4828m Evergreen (CO) 2021-08-21
52 James Kelker 113.3 17:15.3 5000m Evergreen (CO) 2023-09-16
53 Harris Barklage 113.3 17:15.3 5000m Evergreen (CO) 2023-09-16
54 Teigon Schwartz 113.0 17:17.7 5000m The Academy (CO) 2023-09-16
55 Braden Bohlmann 112.7 17:20.8 5000m Cheyenne East (WY) 2023-09-16
56 Eryk Domanski 112.6 17:21.2 5000m Fort Collins (CO) 2023-09-16
57 Michael Toews 112.6 18:38.5 4828m Greeley Central (CO) 2021-08-21
58 Nicholas Kelm 112.5 18:38.8 4828m Erie (CO) 2021-08-21
59 Connor Jackson 112.5 17:22.2 5000m Poudre (CO) 2023-09-16
60 Aiden Loftus 112.2 17:25.4 5000m Evergreen (CO) 2023-09-16

View all →

Girls

#AthleteRatingi TimeDistSchoolDate
1 Elena Torres 138.5 18:12.3 4828m Loveland (OH) 2021-08-21
2 Cadence Lapp 133.4 18:54 4828m Loveland (OH) 2021-08-21
3 Leah McDonald 131.0 18:01.6 5000m Poudre (CO) 2023-09-16
4 Quin Gregg 130.5 19:19.5 4828m Lyons (CO) 2021-08-21
5 Elle Murray 128.4 19:38.1 4828m Silver Creek (CA) 2021-08-21
6 Ella Jimenez 128.3 19:39.2 4828m Erie (CO) 2021-08-21
7 Taylor Weiss 128.0 19:42.4 4828m Silver Creek (CA) 2021-08-21
8 Briar Crockett 127.8 19:43.8 4828m Loveland (OH) 2021-08-21
9 Maggie Madsen 127.7 18:29.8 5000m Cheyenne East (WY) 2023-09-16
10 Ashley Keazer 126.9 19:52.7 4828m Erie (CO) 2021-08-21
11 Grace Moroney 125.7 20:03.9 4828m Silver Creek (CA) 2021-08-21
12 Madison Pierson 124.6 20:14.3 4828m Loveland (OH) 2021-08-21
13 Konstanz Searle 124.5 20:15.2 4828m Loveland (OH) 2021-08-21
14 Maggie Bush 123.2 20:28.4 4828m Windsor (CO) 2021-08-21
15 Hannah Schissler 122.7 20:33.1 4828m Severance (CO) 2021-08-21
16 Sorrelle Salcido 122.7 19:14.9 5000m Fort Collins (CO) 2023-09-16
17 Emma Smith 121.5 19:25.9 5000m Cheyenne East (WY) 2023-09-16
18 Kendall Van Meveren 120.9 19:31.6 5000m Fort Collins (CO) 2023-09-16
19 Adeline Barbour 120.0 19:41 5000m Evergreen (CO) 2023-09-16
20 Zola Morgan 118.6 19:54.5 5000m Poudre (CO) 2023-09-16
21 Cloe Ruth 118.5 21:17.2 4828m Silver Creek (CA) 2021-08-21
22 Emma Flowers 118.4 21:18.2 4828m Evergreen (CO) 2021-08-21
23 Kelsie Heins 118.3 21:19.1 4828m Longmont (CO) 2021-08-21
24 Isabel Guerrero 117.5 20:05.5 5000m Fort Collins (CO) 2023-09-16
25 Gracie Craig 117.3 20:07.5 5000m Cheyenne East (WY) 2023-09-16
26 Elena Arteaga 117.0 21:33.4 4828m Fort Morgan (CO) 2021-08-21
27 Ynes Ronnau 116.9 20:12.1 5000m Cheyenne East (WY) 2023-09-16
28 Mackenzie Rauch 116.6 20:14.8 5000m Evergreen (CO) 2023-09-16
29 Jordan Graff 116.5 20:15.9 5000m Evergreen (CO) 2023-09-16
30 Hailey Eyring 116.3 21:41.2 4828m Yuma (CO) 2021-08-21
31 Angela Friedman 116.2 21:42.3 4828m Frontier Academy (CO) 2021-08-21
32 Aliza Bokal 116.2 21:42.3 4828m Skyview (WA) 2021-08-21
33 Kenna Kaminski 116.1 21:43.2 4828m Longmont (CO) 2021-08-21
34 Juliet Koenig 114.9 20:33.5 5000m Fort Collins (CO) 2023-09-16
35 Allison Beard 114.8 21:57.6 4828m Roosevelt (WA) 2021-08-21
36 Alexandria Morton 114.8 21:57.9 4828m Erie (CO) 2021-08-21
37 Lili Leal 114.7 21:58.9 4828m Roosevelt (WA) 2021-08-21
38 Bayley Anderson 114.4 22:03.1 4828m Erie (CO) 2021-08-21
39 Gabriela Arteaga 114.2 22:04.6 4828m Fort Morgan (CO) 2021-08-21
40 Ellie Baatz 114.2 22:05.3 4828m Windsor (CO) 2021-08-21
41 Ava Schaefer 114.1 22:06.2 4828m Windsor (CO) 2021-08-21
42 Anna Schaefer 113.8 22:09.5 4828m Silver Creek (CA) 2021-08-21
43 Kiana Powell 113.7 20:45.7 5000m Fort Collins (CO) 2023-09-16
44 Lane Robinson 113.4 22:14.3 4828m Severance (CO) 2021-08-21
45 Ida Leland 113.4 20:49.6 5000m Fort Collins (CO) 2023-09-16
46 Claire Boyer 113.3 22:15 4828m Windsor (CO) 2021-08-21
47 Leah Shelton 113.3 22:15.6 4828m Lyons (CO) 2021-08-21
48 Riley Crawford 113.3 22:15.9 4828m Silver Creek (CA) 2021-08-21
49 Isabelle Ingraham 113.1 22:18.3 4828m Erie (CO) 2021-08-21
50 Emma Massey 112.7 22:23.2 4828m Silver Creek (CA) 2021-08-21
51 Penley Park 112.6 20:58.3 5000m Fort Collins (CO) 2023-09-16
52 Ella Hohn 112.4 21:00.9 5000m Cheyenne East (WY) 2023-09-16
53 Ella Pettit 112.0 22:30.4 4828m Loveland (OH) 2021-08-21
54 Isobel Pierce 111.2 22:40.9 4828m Loveland (OH) 2021-08-21
55 Wehazit Kelati 111.0 22:43.8 4828m Greeley Central (CO) 2021-08-21
56 Tessa Money 110.7 22:46.4 4828m Longmont (CO) 2021-08-21
57 Brianna Schultz 110.0 22:55.3 4828m Silver Creek (CA) 2021-08-21
58 Isabel Friedl 110.0 22:55.5 4828m Erie (CO) 2021-08-21
59 Sophia Regina 109.7 21:31.2 5000m Fort Collins (CO) 2023-09-16
60 Cat Ruiz 109.7 22:58.9 4828m Silver Creek (CA) 2021-08-21

View all →

Best team performances by rating top-5 average rating, one race, all distances

Boys

#SchoolTop-5 avg DistMeetDate
1 Erie (CO) 122.7 4828m Windsor Wizards Invitational 2021-08-21
2 Lyons (CO) 121.7 4828m Windsor Wizards Invitational 2021-08-21
3 Loveland (OH) 118.4 4828m Windsor Wizards Invitational 2021-08-21
4 Silver Creek (CA) 116.5 4828m Windsor Wizards Invitational 2021-08-21
5 Cheyenne East (WY) 116.3 5000m Andy Meyers Invitational 2023-09-16
6 Fort Morgan (CO) 116.0 4828m Windsor Wizards Invitational 2021-08-21
7 Poudre (CO) 115.9 5000m Andy Meyers Invitational 2023-09-16
8 Fort Collins (CO) 115.1 5000m Andy Meyers Invitational 2023-09-16
9 Wiggins (CO) 114.6 5000m Andy Meyers Invitational 2023-09-16
10 Windsor (CO) 112.6 4828m Windsor Wizards Invitational 2021-08-21
11 Severance (CO) 112.1 4828m Windsor Wizards Invitational 2021-08-21
12 Longmont (CO) 109.8 4828m Windsor Wizards Invitational 2021-08-21
13 Roosevelt (WA) 109.8 4828m Windsor Wizards Invitational 2021-08-21
14 Evergreen (CO) 107.5 5000m Andy Meyers Invitational 2023-09-16
15 Northridge (UT) 105.7 5000m Andy Meyers Invitational 2023-09-16
16 The Academy (CO) 104.5 5000m Andy Meyers Invitational 2023-09-16
17 Skyview (WA) 103.5 4828m Windsor Wizards Invitational 2021-08-21
18 Frontier Academy (CO) 103.2 4828m Windsor Wizards Invitational 2021-08-21
19 Greeley West (CO) 102.6 4828m Windsor Wizards Invitational 2021-08-21
20 University (WA) 99.8 5000m Andy Meyers Invitational 2023-09-16
21 Greeley Central (CO) 96.9 4828m Windsor Wizards Invitational 2021-08-21
22 Platte Valley (CO) 94.4 5000m Andy Meyers Invitational 2023-09-16

View all →

Girls

#SchoolTop-5 avg DistMeetDate
1 Loveland (OH) 129.8 4828m Windsor Wizards Invitational 2021-08-21
2 Silver Creek (CA) 122.9 4828m Windsor Wizards Invitational 2021-08-21
3 Erie (CO) 119.5 4828m Windsor Wizards Invitational 2021-08-21
4 Cheyenne East (WY) 119.2 5000m Andy Meyers Invitational 2023-09-16
5 Fort Collins (CO) 118.0 5000m Andy Meyers Invitational 2023-09-16
6 Windsor (CO) 114.6 4828m Windsor Wizards Invitational 2021-08-21
7 Evergreen (CO) 113.0 5000m Andy Meyers Invitational 2023-09-16
8 Longmont (CO) 112.3 4828m Windsor Wizards Invitational 2021-08-21
9 Fort Morgan (CO) 111.0 4828m Windsor Wizards Invitational 2021-08-21
10 Roosevelt (WA) 108.8 4828m Windsor Wizards Invitational 2021-08-21
11 Severance (CO) 107.9 4828m Windsor Wizards Invitational 2021-08-21
12 Wellington (TX) 100.6 5000m Andy Meyers Invitational 2023-09-16
13 Wiggins (CO) 99.4 5000m Andy Meyers Invitational 2023-09-16
14 Greeley West (CO) 94.2 4828m Windsor Wizards Invitational 2021-08-21
15 Greeley Central (CO) 94.1 4828m Windsor Wizards Invitational 2021-08-21

View all →

Meets held here all distances

MeetLast heldDistanceResults
Andy Meyers Invitational 2023-09-16 5000 228
Windsor Wizards Invitational 2021-08-21 4828 319

View all →